Home > Weather > Pokhara > Past weeks

Flag for Nepal Past Weather in Pokhara, Nepal — Yesterday and Last 2 Weeks

Now
72 °F

Partly cloudy.


Feels Like: 69 °F
Forecast: 64 / 76 °F
Wind: 2 mph from North

Location: Kathmandu Airport

Current Time: Jul 28, 2016 at 8:32:02 PM

Latest Report: Jul 28, 2016 at 8:05 PM


Visibility: 4 mi

Pressure: 29.89 "Hg (27.10 "Hg at 847m altitude)

Humidity: 88%

Dew Point: 68 °F

Location of PokharaLocation

Past Weather in Pokhara — Graph

°F

Pokhara Temperature Yesterday

Maximum temperature yesterday: 79 °F (at 11:05 AM)
Minimum temperature yesterday: 70 °F (at 1:35 AM)
Average temperature yesterday: 72 °F

High & Low Weather Summary for the Past Weeks

 TemperatureHumidityPressure
High82 °F (Jul 14, 12:35 PM)100% (Jul 14, 6:05 AM)30.04 "Hg (Jul 14, 6:05 AM)
Low66 °F (Jul 26, 4:35 AM)62% (Jul 23, 11:35 AM)29.71 "Hg (Jul 14, 3:05 PM)
Average73 °F89%29.87 "Hg
* Reported Jul 13 7:05 PM — Jul 28 7:05 PM, Pokhara, Weather by CustomWeather, © 2016

Note: Actual official high and low records may vary slightly from our data, if they occured in-between our weather recording intervals... More about our weather records

Advertising

Pokhara Weather History for the Previous 24 Hours

Scroll right to see more
 ConditionsComfort  
Time TempWeatherWind HumidityBarometerVisibility
7:05 PM
Thu, Jul 28
72 °FLight rain. Broken clouds.2 mph94%29.89 "Hg4 mi
6:35 PM72 °FRain. Broken clouds.6 mph88%29.86 "Hg4 mi
6:05 PM75 °FRain. Broken clouds.No wind78%29.86 "Hg4 mi
5:35 PM75 °FRain. Broken clouds.No wind78%29.86 "Hg4 mi
5:05 PM75 °FRain. Broken clouds.2 mph83%29.83 "Hg4 mi
4:35 PM75 °FRain. Broken clouds.3 mph83%29.86 "Hg4 mi
4:05 PM73 °FBroken clouds.5 mph89%29.86 "Hg4 mi
3:35 PM73 °FBroken clouds.7 mph89%29.86 "Hg4 mi
3:05 PM72 °FBroken clouds.7 mph94%29.89 "Hg4 mi
2:35 PM72 °FRain. Broken clouds.5 mph88%29.89 "Hg4 mi
2:05 PM73 °FRain. Broken clouds.2 mph94%29.92 "Hg4 mi
1:05 PM75 °FLight rain. Broken clouds.5 mph78%29.92 "Hg4 mi
12:35 PM79 °FRain. Broken clouds.3 mph74%29.92 "Hg4 mi
12:05 PM77 °FBroken clouds.3 mph79%29.95 "Hg4 mi
11:35 AM75 °FLight rain. Broken clouds.2 mph83%29.95 "Hg4 mi
11:05 AM75 °FLight rain. Broken clouds.2 mph78%29.98 "HgN/A
10:35 AM75 °FLight rain. Broken clouds.2 mph78%29.98 "Hg4 mi
10:05 AM75 °FDrizzle. Broken clouds.2 mph83%29.98 "Hg4 mi
9:35 AM73 °FLight rain. More clouds than sun.No wind83%29.98 "Hg4 mi
9:05 AM73 °FLight rain. Broken clouds.No wind83%29.98 "Hg4 mi
8:35 AM73 °FBroken clouds.No wind83%29.98 "Hg4 mi
8:05 AM72 °FBroken clouds.No wind88%29.98 "Hg4 mi
7:35 AM72 °FBroken clouds.No wind88%29.95 "Hg4 mi
7:05 AM70 °FBroken clouds.No wind94%29.95 "Hg4 mi
6:35 AM70 °FBroken clouds.3 mph94%29.95 "Hg4 mi
6:05 AM70 °FMostly cloudy.No wind94%29.95 "Hg4 mi
5:35 AM68 °FMostly cloudy.No wind100%29.95 "Hg4 mi
4:35 AM70 °FPartly cloudy.No wind94%29.95 "Hg4 mi
3:35 AM70 °FPartly cloudy.No wind94%29.95 "Hg4 mi
2:35 AM70 °FLight rain. Mostly cloudy.No wind94%29.95 "Hg4 mi
1:35 AM70 °FLight rain. Mostly cloudy.No wind94%29.95 "Hg4 mi
12:35 AM70 °FLight rain. Mostly cloudy.3 mph94%29.98 "Hg4 mi
12:05 AM70 °FLight rain. Mostly cloudy.5 mph94%29.98 "Hg4 mi
11:35 PM
Wed, Jul 27
70 °FLight rain. Partly cloudy.2 mph94%29.98 "Hg4 mi
11:05 PM70 °FPartly cloudy.2 mph94%29.98 "Hg4 mi
10:35 PM70 °FPartly cloudy.5 mph94%29.98 "Hg4 mi
10:05 PM70 °FPartly cloudy.5 mph94%30.01 "Hg4 mi
9:35 PM70 °FPartly cloudy.5 mph94%29.98 "Hg4 mi
9:05 PM70 °FPartly cloudy.5 mph94%29.98 "Hg4 mi
8:35 PM70 °FPartly cloudy.5 mph94%29.98 "Hg4 mi
Weather by CustomWeather, © 2016

See weather overviewHow to use our weather pages